Powrót do katalogu

CZ-6A DEB

AktywnySSO
NORAD 54621·DEBRIS·🇨🇳 China

Wystrzelony Nov 11, 2022 z Taiyuan Satellite Launch Center

Loading…

Następne Przeloty (najbliższe 24 godziny)

TLE

ŚwieżeSource: Space-Track

Epoka: Sep 13, 2026, 22:02 UTC

1 54621U 22151NX  26256.91870464  .00000592  00000-0  36015-3 0  9993
2 54621  98.8540 248.9918 0060198  91.2244 269.5824 14.09092611195959

Śledź CZ-6A DEB w czasie rzeczywistym z AllMySat

Download on the App Store